Time,TemperatureF,DewpointF,PressureIn,WindDirection,WindDirectionDegrees,WindSpeedMPH,WindSpeedGustMPH,Humidity,HourlyPrecipIn,Conditions,Clouds,dailyrainin,SoftwareType,DateUTC
2013-01-25 00:03:00,33.4,28.8,29.92,SW,225,2.0,6.0,83,0.00,,,0.03,meteohub,2013-01-25 00:03:00,
2013-01-25 00:08:00,33.4,28.8,29.92,WSW,247,2.0,4.0,83,0.00,,,0.00,meteohub,2013-01-25 00:08:00,
2013-01-25 00:13:00,33.3,28.6,29.92,SW,225,0.0,4.0,83,0.00,,,0.00,meteohub,2013-01-25 00:13:00,
2013-01-25 00:18:00,33.3,28.6,29.92,WSW,247,3.0,4.0,83,0.00,,,0.00,meteohub,2013-01-25 00:18:00,
2013-01-25 00:23:00,33.3,28.6,29.92,SW,225,2.0,3.0,83,0.00,,,0.00,meteohub,2013-01-25 00:23:00,
2013-01-25 00:28:00,33.3,28.9,29.92,SSW,202,2.0,3.0,84,0.00,,,0.00,meteohub,2013-01-25 00:28:00,
2013-01-25 00:33:00,33.3,28.6,29.92,SSW,202,4.0,4.0,83,0.00,,,0.00,meteohub,2013-01-25 00:33:00,
2013-01-25 00:38:00,33.4,28.8,29.92,SSW,202,5.0,7.0,83,0.00,,,0.00,meteohub,2013-01-25 00:38:00,
2013-01-25 00:43:00,33.4,28.8,29.92,SSE,157,5.0,7.0,83,0.00,,,0.00,meteohub,2013-01-25 00:43:00,
2013-01-25 00:49:00,33.6,28.9,29.92,SSW,202,5.0,8.0,83,0.00,,,0.00,meteohub,2013-01-25 00:49:00,
2013-01-25 00:54:00,33.6,28.4,29.92,SSW,202,4.0,8.0,81,0.00,,,0.00,meteohub,2013-01-25 00:54:00,
2013-01-25 00:59:00,33.8,28.6,29.92,SW,225,5.0,9.0,81,0.00,,,0.00,meteohub,2013-01-25 00:59:00,
2013-01-25 01:04:00,33.8,28.9,29.92,SW,225,6.0,9.0,82,0.00,,,0.00,meteohub,2013-01-25 01:04:00,
2013-01-25 01:09:00,33.8,28.6,29.92,WSW,247,6.0,10.0,81,0.00,,,0.00,meteohub,2013-01-25 01:09:00,
2013-01-25 01:14:00,33.8,28.9,29.92,SSW,202,8.0,10.0,82,0.00,,,0.00,meteohub,2013-01-25 01:14:00,
2013-01-25 01:19:00,33.8,28.6,29.92,SW,225,4.0,10.0,81,0.00,,,0.00,meteohub,2013-01-25 01:19:00,
2013-01-25 01:24:00,33.8,28.6,29.92,SW,225,10.0,11.0,81,0.00,,,0.00,meteohub,2013-01-25 01:24:00,
2013-01-25 01:29:00,33.8,28.6,29.92,WSW,247,6.0,11.0,81,0.00,,,0.00,meteohub,2013-01-25 01:29:00,
2013-01-25 01:34:00,33.8,28.6,29.92,WSW,247,8.0,11.0,81,0.00,,,0.00,meteohub,2013-01-25 01:34:00,
2013-01-25 01:40:00,33.8,28.2,29.92,SW,225,7.0,13.0,80,0.00,,,0.00,meteohub,2013-01-25 01:40:00,
2013-01-25 01:45:00,33.8,28.2,29.92,SW,225,4.0,13.0,80,0.00,,,0.00,meteohub,2013-01-25 01:45:00,
2013-01-25 01:50:00,33.8,28.2,29.89,SW,225,8.0,13.0,80,0.00,,,0.00,meteohub,2013-01-25 01:50:00,
2013-01-25 01:55:00,33.8,28.2,29.89,West,270,6.0,13.0,80,0.00,,,0.00,meteohub,2013-01-25 01:55:00,
2013-01-25 02:00:00,33.8,28.2,29.89,SSW,202,4.0,9.0,80,0.00,,,0.00,meteohub,2013-01-25 02:00:00,
2013-01-25 02:05:00,33.8,28.2,29.89,SSW,202,3.0,9.0,80,0.00,,,0.00,meteohub,2013-01-25 02:05:00,
2013-01-25 02:10:00,33.8,28.0,29.89,WSW,247,4.0,9.0,79,0.00,,,0.00,meteohub,2013-01-25 02:10:00,
2013-01-25 02:15:00,33.8,28.0,29.89,South,180,6.0,9.0,79,0.00,,,0.00,meteohub,2013-01-25 02:15:00,
2013-01-25 02:20:00,33.8,28.0,29.89,SSW,202,6.0,8.0,79,0.00,,,0.00,meteohub,2013-01-25 02:20:00,
2013-01-25 02:25:00,33.8,28.0,29.89,South,180,2.0,9.0,79,0.00,,,0.00,meteohub,2013-01-25 02:25:00,
2013-01-25 02:31:00,33.8,28.0,29.89,SSW,202,6.0,9.0,79,0.00,,,0.00,meteohub,2013-01-25 02:31:00,
2013-01-25 02:36:00,33.8,28.0,29.89,SW,225,3.0,9.0,79,0.00,,,0.00,meteohub,2013-01-25 02:36:00,
2013-01-25 02:41:00,33.8,28.0,29.89,SSW,202,3.0,8.0,79,0.00,,,0.00,meteohub,2013-01-25 02:41:00,
2013-01-25 02:46:00,33.8,28.2,29.89,SSE,157,2.0,6.0,80,0.00,,,0.00,meteohub,2013-01-25 02:46:00,
2013-01-25 02:51:00,33.6,28.0,29.89,South,180,3.0,4.0,80,0.00,,,0.00,meteohub,2013-01-25 02:51:00,
2013-01-25 02:56:00,33.6,28.0,29.89,South,180,2.0,6.0,80,0.00,,,0.00,meteohub,2013-01-25 02:56:00,
2013-01-25 03:01:00,33.6,28.0,29.89,SSW,202,1.0,6.0,80,0.00,,,0.00,meteohub,2013-01-25 03:01:00,
2013-01-25 03:06:00,33.6,28.0,29.89,South,180,2.0,6.0,80,0.00,,,0.00,meteohub,2013-01-25 03:06:00,
2013-01-25 03:11:00,33.8,28.0,29.89,SSW,202,3.0,6.0,79,0.00,,,0.00,meteohub,2013-01-25 03:11:00,
2013-01-25 03:16:00,33.8,28.0,29.86,South,180,4.0,6.0,79,0.00,,,0.00,meteohub,2013-01-25 03:16:00,
2013-01-25 03:21:00,33.8,28.0,29.86,SSW,202,3.0,8.0,79,0.00,,,0.00,meteohub,2013-01-25 03:21:00,
2013-01-25 03:27:00,33.8,28.0,29.86,SSW,202,3.0,8.0,79,0.00,,,0.00,meteohub,2013-01-25 03:27:00,
2013-01-25 03:32:00,33.8,28.0,29.86,South,180,4.0,8.0,79,0.00,,,0.00,meteohub,2013-01-25 03:32:00,
2013-01-25 03:37:00,33.8,28.0,29.86,SSW,202,3.0,6.0,79,0.00,,,0.00,meteohub,2013-01-25 03:37:00,
2013-01-25 03:42:00,33.8,28.0,29.86,SW,225,4.0,6.0,79,0.00,,,0.00,meteohub,2013-01-25 03:42:00,
2013-01-25 03:47:00,33.6,28.0,29.86,SSW,202,4.0,6.0,80,0.00,,,0.00,meteohub,2013-01-25 03:47:00,
2013-01-25 03:52:00,33.6,28.0,29.86,WSW,247,4.0,6.0,80,0.00,,,0.00,meteohub,2013-01-25 03:52:00,
2013-01-25 03:57:00,33.6,28.4,29.86,SW,225,6.0,8.0,81,0.00,,,0.00,meteohub,2013-01-25 03:57:00,
2013-01-25 04:02:00,33.6,28.4,29.86,SW,225,5.0,8.0,81,0.00,,,0.00,meteohub,2013-01-25 04:02:00,
2013-01-25 04:07:00,33.6,28.4,29.86,WSW,247,4.0,9.0,81,0.00,,,0.00,meteohub,2013-01-25 04:07:00,
2013-01-25 04:12:00,33.4,28.2,29.86,SW,225,6.0,9.0,81,0.00,,,0.00,meteohub,2013-01-25 04:12:00,
2013-01-25 04:17:00,33.4,28.2,29.83,SW,225,6.0,9.0,81,0.00,,,0.00,meteohub,2013-01-25 04:17:00,
2013-01-25 04:22:00,33.4,28.2,29.83,West,270,6.0,9.0,81,0.00,,,0.00,meteohub,2013-01-25 04:22:00,
2013-01-25 04:27:00,33.4,28.2,29.83,SW,225,6.0,9.0,81,0.00,,,0.00,meteohub,2013-01-25 04:27:00,
2013-01-25 04:32:00,33.4,28.2,29.83,WSW,247,5.0,9.0,81,0.00,,,0.00,meteohub,2013-01-25 04:32:00,
2013-01-25 04:37:00,33.4,28.2,29.83,SW,225,7.0,10.0,81,0.00,,,0.00,meteohub,2013-01-25 04:37:00,
2013-01-25 04:42:00,33.6,28.4,29.83,SW,225,5.0,10.0,81,0.00,,,0.00,meteohub,2013-01-25 04:42:00,
2013-01-25 04:47:00,33.6,28.0,29.83,SSW,202,9.0,10.0,80,0.00,,,0.00,meteohub,2013-01-25 04:47:00,
2013-01-25 04:52:00,33.6,28.0,29.83,SSW,202,6.0,11.0,80,0.00,,,0.00,meteohub,2013-01-25 04:52:00,
2013-01-25 04:57:00,33.8,28.0,29.83,WSW,247,8.0,11.0,79,0.00,,,0.00,meteohub,2013-01-25 04:57:00,
2013-01-25 05:00:00,33.8,28.0,29.83,SSW,202,6.0,11.0,79,0.00,,,0.00,meteohub,2013-01-25 05:00:00,
2013-01-25 05:05:00,33.8,28.0,29.83,SSW,202,10.0,11.0,79,0.00,,,0.00,meteohub,2013-01-25 05:05:00,
2013-01-25 05:06:00,33.8,28.0,29.83,WSW,247,9.0,12.0,79,0.00,,,0.00,meteohub,2013-01-25 05:06:00,
2013-01-25 05:11:00,33.8,27.7,29.83,WSW,247,4.0,19.0,78,0.00,,,0.01,meteohub,2013-01-25 05:11:00,
2013-01-25 05:16:00,33.8,27.7,29.83,SSW,202,8.0,19.0,78,0.00,,,0.01,meteohub,2013-01-25 05:16:00,
2013-01-25 05:21:00,33.8,27.7,29.83,SW,225,10.0,19.0,78,0.00,,,0.01,meteohub,2013-01-25 05:21:00,
2013-01-25 05:26:00,33.8,27.7,29.83,SW,225,6.0,14.0,78,0.00,,,0.01,meteohub,2013-01-25 05:26:00,
2013-01-25 05:31:00,33.8,27.3,29.83,SW,225,12.0,14.0,77,0.00,,,0.01,meteohub,2013-01-25 05:31:00,
2013-01-25 05:36:00,33.8,27.3,29.83,SW,225,12.0,13.0,77,0.00,,,0.01,meteohub,2013-01-25 05:36:00,
2013-01-25 05:41:00,33.8,27.3,29.83,South,180,5.0,14.0,77,0.00,,,0.01,meteohub,2013-01-25 05:41:00,
2013-01-25 05:46:00,33.8,27.3,29.81,SW,225,3.0,14.0,77,0.00,,,0.01,meteohub,2013-01-25 05:46:00,
2013-01-25 05:52:00,33.8,27.3,29.81,SW,225,5.0,14.0,77,0.00,,,0.01,meteohub,2013-01-25 05:52:00,
2013-01-25 05:57:00,33.6,27.5,29.81,SW,225,8.0,11.0,78,0.00,,,0.01,meteohub,2013-01-25 05:57:00,
2013-01-25 06:02:00,33.6,27.5,29.81,SW,225,4.0,11.0,78,0.00,,,0.01,meteohub,2013-01-25 06:02:00,
2013-01-25 06:07:00,33.6,27.5,29.81,WSW,247,5.0,11.0,78,0.00,,,0.01,meteohub,2013-01-25 06:07:00,
2013-01-25 06:12:00,33.6,27.5,29.81,WSW,247,4.0,9.0,78,0.00,,,0.01,meteohub,2013-01-25 06:12:00,
2013-01-25 06:17:00,33.6,27.5,29.81,SW,225,6.0,9.0,78,0.00,,,0.01,meteohub,2013-01-25 06:17:00,
2013-01-25 06:22:00,33.6,27.5,29.81,SW,225,3.0,9.0,78,0.00,,,0.01,meteohub,2013-01-25 06:22:00,
2013-01-25 06:27:00,33.4,27.7,29.81,WSW,247,2.0,6.0,79,0.00,,,0.01,meteohub,2013-01-25 06:27:00,
2013-01-25 06:32:00,33.4,27.7,29.81,WSW,247,0.0,6.0,79,0.00,,,0.01,meteohub,2013-01-25 06:32:00,
2013-01-25 06:37:00,33.4,27.7,29.81,WSW,247,4.0,6.0,79,0.00,,,0.01,meteohub,2013-01-25 06:37:00,
2013-01-25 06:42:00,33.4,27.7,29.81,WSW,247,2.0,6.0,79,0.00,,,0.01,meteohub,2013-01-25 06:42:00,
2013-01-25 06:47:00,33.4,27.9,29.81,WSW,247,2.0,6.0,80,0.00,,,0.01,meteohub,2013-01-25 06:47:00,
2013-01-25 06:52:00,33.3,28.0,29.81,West,270,3.0,6.0,81,0.00,,,0.01,meteohub,2013-01-25 06:52:00,
2013-01-25 06:57:00,33.3,28.4,29.81,West,270,0.0,5.0,82,0.00,,,0.01,meteohub,2013-01-25 06:57:00,
2013-01-25 07:02:00,33.3,28.4,29.81,NW,315,0.0,4.0,82,0.00,,,0.01,meteohub,2013-01-25 07:02:00,
2013-01-25 07:07:00,33.1,28.4,29.81,NW,315,0.0,4.0,83,0.00,,,0.01,meteohub,2013-01-25 07:07:00,
2013-01-25 07:13:00,33.1,28.8,29.81,NNE,22,0.0,2.0,84,0.00,,,0.01,meteohub,2013-01-25 07:13:00,
2013-01-25 07:18:00,33.1,28.8,29.81,NNE,22,0.0,1.0,84,0.00,,,0.01,meteohub,2013-01-25 07:18:00,
2013-01-25 07:23:00,32.9,28.9,29.81,WSW,247,0.0,2.0,85,0.00,,,0.01,meteohub,2013-01-25 07:23:00,
2013-01-25 07:28:00,32.9,28.9,29.81,WSW,247,0.0,2.0,85,0.00,,,0.01,meteohub,2013-01-25 07:28:00,
2013-01-25 07:33:00,32.9,29.1,29.81,North,0,0.0,2.0,86,0.00,,,0.01,meteohub,2013-01-25 07:33:00,
2013-01-25 07:38:00,32.7,28.9,29.81,NNE,22,0.0,2.0,86,0.00,,,0.01,meteohub,2013-01-25 07:38:00,
2013-01-25 07:43:00,32.7,29.3,29.81,WSW,247,3.0,3.0,87,0.00,,,0.01,meteohub,2013-01-25 07:43:00,
2013-01-25 07:48:00,32.7,29.3,29.81,WNW,292,0.0,3.0,87,0.00,,,0.01,meteohub,2013-01-25 07:48:00,
2013-01-25 07:53:00,32.7,29.3,29.81,West,270,0.0,3.0,87,0.00,,,0.01,meteohub,2013-01-25 07:53:00,
2013-01-25 07:59:00,32.7,29.5,29.81,WSW,247,0.0,3.0,88,0.00,,,0.01,meteohub,2013-01-25 07:59:00,
2013-01-25 08:04:00,32.7,29.5,29.78,WNW,292,2.0,3.0,88,0.00,,,0.01,meteohub,2013-01-25 08:04:00,
2013-01-25 08:09:00,32.7,29.5,29.78,SW,225,1.0,3.0,88,0.00,,,0.01,meteohub,2013-01-25 08:09:00,
2013-01-25 08:14:00,32.7,29.8,29.78,WSW,247,2.0,3.0,89,0.00,,,0.01,meteohub,2013-01-25 08:14:00,
2013-01-25 08:19:00,32.7,29.8,29.78,SSW,202,2.0,3.0,89,0.00,,,0.01,meteohub,2013-01-25 08:19:00,
2013-01-25 08:24:00,32.7,29.8,29.78,South,180,2.0,3.0,89,0.00,,,0.01,meteohub,2013-01-25 08:24:00,
2013-01-25 08:29:00,32.7,30.2,29.78,SSW,202,3.0,3.0,90,0.00,,,0.01,meteohub,2013-01-25 08:29:00,
2013-01-25 08:35:00,32.7,30.2,29.78,SW,225,2.0,6.0,90,0.00,,,0.01,meteohub,2013-01-25 08:35:00,
2013-01-25 08:40:00,32.7,30.2,29.78,SW,225,3.0,7.0,90,0.00,,,0.01,meteohub,2013-01-25 08:40:00,
2013-01-25 08:45:00,32.7,30.2,29.78,SSW,202,3.0,7.0,90,0.00,,,0.01,meteohub,2013-01-25 08:45:00,
2013-01-25 08:50:00,32.7,30.4,29.78,SSW,202,1.0,7.0,91,0.00,,,0.01,meteohub,2013-01-25 08:50:00,
2013-01-25 08:55:00,32.9,30.6,29.78,SSW,202,2.0,6.0,91,0.00,,,0.01,meteohub,2013-01-25 08:55:00,
2013-01-25 09:00:00,32.9,30.9,29.78,SSW,202,3.0,6.0,92,0.00,,,0.01,meteohub,2013-01-25 09:00:00,
2013-01-25 09:05:00,32.9,30.9,29.78,SSW,202,0.0,6.0,92,0.00,,,0.01,meteohub,2013-01-25 09:05:00,
2013-01-25 09:10:00,32.9,30.9,29.78,SSW,202,2.0,4.0,92,0.00,,,0.01,meteohub,2013-01-25 09:10:00,
2013-01-25 09:16:00,32.9,30.9,29.78,SSW,202,1.0,4.0,92,0.00,,,0.01,meteohub,2013-01-25 09:16:00,
2013-01-25 09:21:00,33.1,31.3,29.78,SSW,202,0.0,3.0,93,0.00,,,0.01,meteohub,2013-01-25 09:21:00,
2013-01-25 09:26:00,33.1,31.3,29.78,SSW,202,1.0,4.0,93,0.00,,,0.01,meteohub,2013-01-25 09:26:00,
2013-01-25 09:31:00,33.1,31.3,29.75,SSW,202,0.0,4.0,93,0.00,,,0.01,meteohub,2013-01-25 09:31:00,
2013-01-25 09:36:00,33.1,31.3,29.75,SSW,202,0.0,4.0,93,0.00,,,0.01,meteohub,2013-01-25 09:36:00,
2013-01-25 09:41:00,33.3,31.5,29.75,SSW,202,0.0,2.0,93,0.00,,,0.01,meteohub,2013-01-25 09:41:00,
2013-01-25 09:47:00,33.3,31.6,29.75,SSW,202,1.0,3.0,94,0.00,,,0.01,meteohub,2013-01-25 09:47:00,
2013-01-25 09:52:00,33.3,31.6,29.75,SSW,202,0.0,3.0,94,0.00,,,0.01,meteohub,2013-01-25 09:52:00,
2013-01-25 09:57:00,33.3,31.6,29.75,SSW,202,0.0,3.0,94,0.00,,,0.01,meteohub,2013-01-25 09:57:00,
2013-01-25 10:02:00,33.3,31.6,29.75,SSW,202,0.0,1.0,94,0.00,,,0.01,meteohub,2013-01-25 10:02:00,
2013-01-25 10:07:00,33.4,31.8,29.75,SSW,202,0.0,3.0,94,0.00,,,0.01,meteohub,2013-01-25 10:07:00,
2013-01-25 10:12:00,33.4,31.8,29.75,SSW,202,0.0,3.0,94,0.00,,,0.01,meteohub,2013-01-25 10:12:00,
2013-01-25 10:17:00,33.4,31.8,29.75,SSW,202,0.0,3.0,94,0.00,,,0.01,meteohub,2013-01-25 10:17:00,
2013-01-25 10:23:00,33.4,31.8,29.75,SSW,202,1.0,2.0,94,0.00,,,0.01,meteohub,2013-01-25 10:23:00,
2013-01-25 10:28:00,33.4,31.8,29.75,SSW,202,3.0,3.0,94,0.00,,,0.01,meteohub,2013-01-25 10:28:00,
2013-01-25 10:33:00,33.4,31.8,29.75,SSW,202,2.0,3.0,94,0.00,,,0.01,meteohub,2013-01-25 10:33:00,
2013-01-25 10:38:00,33.4,31.8,29.75,SSW,202,3.0,3.0,94,0.00,,,0.01,meteohub,2013-01-25 10:38:00,
2013-01-25 10:43:00,33.4,31.8,29.75,SSW,202,3.0,3.0,94,0.00,,,0.01,meteohub,2013-01-25 10:43:00,
2013-01-25 10:48:00,33.4,31.8,29.72,SSW,202,3.0,4.0,94,0.00,,,0.01,meteohub,2013-01-25 10:48:00,
2013-01-25 10:53:00,33.4,32.2,29.72,SSW,202,3.0,4.0,95,0.00,,,0.01,meteohub,2013-01-25 10:53:00,
2013-01-25 10:58:00,33.4,31.8,29.72,SSW,202,3.0,4.0,94,0.00,,,0.01,meteohub,2013-01-25 10:58:00,
2013-01-25 11:04:00,33.4,32.2,29.72,SSW,202,3.0,4.0,95,0.00,,,0.01,meteohub,2013-01-25 11:04:00,
2013-01-25 11:09:00,33.3,32.0,29.72,SSW,202,3.0,4.0,95,0.00,,,0.01,meteohub,2013-01-25 11:09:00,
2013-01-25 11:14:00,33.3,32.0,29.72,SSW,202,2.0,4.0,95,0.00,,,0.01,meteohub,2013-01-25 11:14:00,
2013-01-25 11:19:00,33.4,32.2,29.72,SSW,202,3.0,4.0,95,0.00,,,0.01,meteohub,2013-01-25 11:19:00,
2013-01-25 11:24:00,33.4,32.2,29.72,SSW,202,2.0,4.0,95,0.00,,,0.01,meteohub,2013-01-25 11:24:00,
2013-01-25 11:29:00,33.4,32.2,29.72,SSW,202,2.0,4.0,95,0.00,,,0.01,meteohub,2013-01-25 11:29:00,
2013-01-25 11:34:00,33.4,32.2,29.72,SSW,202,3.0,3.0,95,0.00,,,0.01,meteohub,2013-01-25 11:34:00,
2013-01-25 11:39:00,33.4,32.2,29.72,SSW,202,3.0,3.0,95,0.00,,,0.01,meteohub,2013-01-25 11:39:00,
2013-01-25 11:44:00,33.4,32.2,29.72,SSW,202,3.0,3.0,95,0.00,,,0.01,meteohub,2013-01-25 11:44:00,
2013-01-25 11:49:00,33.6,32.4,29.69,SSW,202,2.0,4.0,95,0.00,,,0.01,meteohub,2013-01-25 11:49:00,
2013-01-25 11:55:00,33.6,32.4,29.69,SSW,202,3.0,4.0,95,0.00,,,0.01,meteohub,2013-01-25 11:55:00,
2013-01-25 12:00:00,33.6,32.4,29.69,SSW,202,4.0,4.0,95,0.00,,,0.01,meteohub,2013-01-25 12:00:00,
2013-01-25 12:05:00,33.6,32.4,29.69,SSW,202,3.0,4.0,95,0.00,,,0.01,meteohub,2013-01-25 12:05:00,
2013-01-25 12:10:00,33.6,32.5,29.69,SSW,202,4.0,5.0,96,0.00,,,0.01,meteohub,2013-01-25 12:10:00,
2013-01-25 12:15:00,33.6,32.5,29.66,South,180,5.0,6.0,96,0.00,,,0.01,meteohub,2013-01-25 12:15:00,
2013-01-25 12:20:00,33.6,32.5,29.66,South,180,4.0,6.0,96,0.00,,,0.01,meteohub,2013-01-25 12:20:00,
2013-01-25 12:25:00,33.8,32.7,29.66,South,180,4.0,6.0,96,0.00,,,0.01,meteohub,2013-01-25 12:25:00,
2013-01-25 12:30:00,34.0,32.9,29.66,South,180,5.0,6.0,96,0.00,,,0.01,meteohub,2013-01-25 12:30:00,
2013-01-25 12:36:00,34.0,32.9,29.66,SSE,157,5.0,6.0,96,0.00,,,0.01,meteohub,2013-01-25 12:36:00,
2013-01-25 12:41:00,34.2,33.1,29.66,SSE,157,4.0,6.0,96,0.00,,,0.01,meteohub,2013-01-25 12:41:00,
2013-01-25 12:46:00,34.2,33.1,29.63,SE,135,6.0,8.0,96,0.00,,,0.01,meteohub,2013-01-25 12:46:00,
2013-01-25 12:52:00,34.3,33.3,29.63,ESE,112,8.0,8.0,96,0.00,,,0.01,meteohub,2013-01-25 12:52:00,
2013-01-25 12:57:00,34.3,33.1,29.63,ESE,112,6.0,8.0,95,0.00,,,0.01,meteohub,2013-01-25 12:57:00,
2013-01-25 13:02:00,34.3,33.1,29.63,ESE,112,5.0,8.0,95,0.00,,,0.01,meteohub,2013-01-25 13:02:00,
2013-01-25 13:07:00,34.3,33.1,29.63,SE,135,3.0,8.0,95,0.00,,,0.01,meteohub,2013-01-25 13:07:00,
2013-01-25 13:12:00,34.3,33.1,29.63,SSE,157,3.0,8.0,95,0.00,,,0.01,meteohub,2013-01-25 13:12:00,
2013-01-25 13:17:00,34.5,33.3,29.63,SSE,157,6.0,6.0,95,0.00,,,0.01,meteohub,2013-01-25 13:17:00,
2013-01-25 13:22:00,34.3,33.1,29.63,SE,135,5.0,6.0,95,0.00,,,0.01,meteohub,2013-01-25 13:22:00,
2013-01-25 13:27:00,34.5,33.3,29.63,SE,135,3.0,6.0,95,0.00,,,0.01,meteohub,2013-01-25 13:27:00,
2013-01-25 13:32:00,34.5,33.3,29.60,SE,135,6.0,7.0,95,0.00,,,0.01,meteohub,2013-01-25 13:32:00,
2013-01-25 13:37:00,34.5,33.3,29.60,SE,135,4.0,7.0,95,0.00,,,0.02,meteohub,2013-01-25 13:37:00,
2013-01-25 13:43:00,34.3,32.7,29.60,SSE,157,3.0,7.0,94,0.00,,,0.02,meteohub,2013-01-25 13:43:00,
2013-01-25 13:48:00,34.2,32.5,29.60,SE,135,3.0,6.0,94,0.00,,,0.02,meteohub,2013-01-25 13:48:00,
2013-01-25 13:53:00,34.2,32.5,29.60,SE,135,4.0,6.0,94,0.00,,,0.02,meteohub,2013-01-25 13:53:00,
2013-01-25 13:58:00,34.2,32.5,29.60,ENE,67,4.0,6.0,94,0.00,,,0.02,meteohub,2013-01-25 13:58:00,
2013-01-25 14:03:00,34.0,32.7,29.60,East,90,5.0,6.0,95,0.00,,,0.02,meteohub,2013-01-25 14:03:00,
2013-01-25 14:08:00,34.0,32.7,29.60,SE,135,4.0,6.0,95,0.00,,,0.02,meteohub,2013-01-25 14:08:00,
2013-01-25 14:13:00,34.0,32.7,29.60,SE,135,3.0,7.0,95,0.00,,,0.02,meteohub,2013-01-25 14:13:00,
2013-01-25 14:18:00,34.0,32.7,29.57,SE,135,3.0,7.0,95,0.00,,,0.02,meteohub,2013-01-25 14:18:00,
2013-01-25 14:23:00,33.8,32.5,29.57,ESE,112,3.0,7.0,95,0.00,,,0.02,meteohub,2013-01-25 14:23:00,
2013-01-25 14:29:00,33.8,32.5,29.57,ESE,112,4.0,6.0,95,0.00,,,0.02,meteohub,2013-01-25 14:29:00,
2013-01-25 14:34:00,33.8,32.5,29.57,ESE,112,3.0,6.0,95,0.00,,,0.02,meteohub,2013-01-25 14:34:00,
2013-01-25 14:39:00,33.8,32.5,29.57,ESE,112,4.0,6.0,95,0.00,,,0.02,meteohub,2013-01-25 14:39:00,
2013-01-25 14:44:00,33.8,32.5,29.57,ESE,112,3.0,6.0,95,0.00,,,0.02,meteohub,2013-01-25 14:44:00,
2013-01-25 14:49:00,33.6,32.5,29.57,ESE,112,3.0,6.0,96,0.00,,,0.02,meteohub,2013-01-25 14:49:00,
2013-01-25 14:54:00,33.6,32.5,29.57,ESE,112,3.0,6.0,96,0.00,,,0.02,meteohub,2013-01-25 14:54:00,
2013-01-25 14:59:00,33.6,32.5,29.57,ESE,112,6.0,6.0,96,0.00,,,0.02,meteohub,2013-01-25 14:59:00,
2013-01-25 15:04:00,33.6,32.5,29.54,ESE,112,3.0,6.0,96,0.00,,,0.02,meteohub,2013-01-25 15:04:00,
2013-01-25 15:09:00,33.6,32.5,29.54,ESE,112,3.0,6.0,96,0.00,,,0.02,meteohub,2013-01-25 15:09:00,
2013-01-25 15:15:00,33.6,32.5,29.54,ESE,112,3.0,6.0,96,0.00,,,0.02,meteohub,2013-01-25 15:15:00,
2013-01-25 15:20:00,33.6,32.5,29.54,ESE,112,4.0,6.0,96,0.00,,,0.02,meteohub,2013-01-25 15:20:00,
2013-01-25 15:25:00,33.6,32.5,29.54,ESE,112,3.0,6.0,96,0.00,,,0.02,meteohub,2013-01-25 15:25:00,
2013-01-25 15:30:00,33.6,32.5,29.54,ESE,112,6.0,6.0,96,0.00,,,0.02,meteohub,2013-01-25 15:30:00,
2013-01-25 15:35:00,33.4,32.4,29.54,ESE,112,3.0,6.0,96,0.00,,,0.02,meteohub,2013-01-25 15:35:00,
2013-01-25 15:40:00,33.4,32.4,29.54,ESE,112,3.0,6.0,96,0.00,,,0.02,meteohub,2013-01-25 15:40:00,
2013-01-25 15:45:00,33.4,32.4,29.51,ESE,112,5.0,6.0,96,0.00,,,0.02,meteohub,2013-01-25 15:45:00,
2013-01-25 15:50:00,33.4,32.4,29.51,ESE,112,6.0,8.0,96,0.00,,,0.02,meteohub,2013-01-25 15:50:00,
2013-01-25 15:56:00,33.3,32.5,29.51,ESE,112,6.0,8.0,97,0.00,,,0.02,meteohub,2013-01-25 15:56:00,
2013-01-25 16:01:00,33.3,32.5,29.51,ESE,112,6.0,8.0,97,0.00,,,0.02,meteohub,2013-01-25 16:01:00,
2013-01-25 16:06:00,33.3,32.5,29.51,ESE,112,6.0,9.0,97,0.00,,,0.02,meteohub,2013-01-25 16:06:00,
2013-01-25 16:11:00,33.3,32.5,29.51,ESE,112,5.0,9.0,97,0.00,,,0.02,meteohub,2013-01-25 16:11:00,
2013-01-25 16:16:00,33.3,32.5,29.51,ESE,112,3.0,9.0,97,0.00,,,0.02,meteohub,2013-01-25 16:16:00,
2013-01-25 16:21:00,33.1,32.4,29.51,ESE,112,4.0,8.0,97,0.00,,,0.02,meteohub,2013-01-25 16:21:00,
2013-01-25 16:26:00,33.1,32.4,29.51,ESE,112,5.0,8.0,97,0.00,,,0.02,meteohub,2013-01-25 16:26:00,
2013-01-25 16:31:00,33.1,32.4,29.51,ESE,112,4.0,7.0,97,0.00,,,0.02,meteohub,2013-01-25 16:31:00,
2013-01-25 16:37:00,33.1,32.4,29.51,ESE,112,3.0,6.0,97,0.00,,,0.02,meteohub,2013-01-25 16:37:00,
2013-01-25 16:42:00,33.1,32.4,29.51,ESE,112,4.0,6.0,97,0.00,,,0.02,meteohub,2013-01-25 16:42:00,
2013-01-25 16:47:00,33.1,32.4,29.48,ESE,112,3.0,6.0,97,0.00,,,0.02,meteohub,2013-01-25 16:47:00,
2013-01-25 16:52:00,33.1,32.5,29.48,ESE,112,4.0,6.0,98,0.00,,,0.02,meteohub,2013-01-25 16:52:00,
2013-01-25 16:57:00,33.1,32.5,29.48,ESE,112,3.0,6.0,98,0.00,,,0.02,meteohub,2013-01-25 16:57:00,
2013-01-25 17:02:00,33.1,32.5,29.48,ESE,112,6.0,6.0,98,0.00,,,0.02,meteohub,2013-01-25 17:02:00,
2013-01-25 17:07:00,33.1,32.5,29.48,ESE,112,4.0,6.0,98,0.00,,,0.02,meteohub,2013-01-25 17:07:00,
2013-01-25 17:12:00,33.1,32.5,29.48,ESE,112,3.0,6.0,98,0.00,,,0.02,meteohub,2013-01-25 17:12:00,
2013-01-25 17:17:00,33.1,32.5,29.48,ESE,112,4.0,6.0,98,0.00,,,0.02,meteohub,2013-01-25 17:17:00,
2013-01-25 17:22:00,33.1,32.5,29.48,ESE,112,5.0,6.0,98,0.00,,,0.02,meteohub,2013-01-25 17:22:00,
2013-01-25 17:27:00,33.1,32.5,29.48,ESE,112,4.0,6.0,98,0.00,,,0.02,meteohub,2013-01-25 17:27:00,
2013-01-25 17:32:00,33.1,32.5,29.45,ESE,112,3.0,6.0,98,0.00,,,0.02,meteohub,2013-01-25 17:32:00,
2013-01-25 17:37:00,33.1,32.5,29.45,ESE,112,4.0,6.0,98,0.00,,,0.02,meteohub,2013-01-25 17:37:00,
2013-01-25 17:43:00,33.1,32.5,29.45,ESE,112,4.0,6.0,98,0.00,,,0.02,meteohub,2013-01-25 17:43:00,
2013-01-25 17:48:00,33.1,32.5,29.45,ESE,112,1.0,5.0,98,0.00,,,0.02,meteohub,2013-01-25 17:48:00,
2013-01-25 17:53:00,33.1,32.5,29.45,ESE,112,3.0,4.0,98,0.00,,,0.02,meteohub,2013-01-25 17:53:00,
2013-01-25 17:58:00,33.1,32.5,29.45,ESE,112,3.0,4.0,98,0.00,,,0.02,meteohub,2013-01-25 17:58:00,
2013-01-25 18:03:00,33.1,32.5,29.45,ESE,112,2.0,4.0,98,0.00,,,0.02,meteohub,2013-01-25 18:03:00,
2013-01-25 18:08:00,33.1,32.5,29.45,ESE,112,2.0,4.0,98,0.00,,,0.02,meteohub,2013-01-25 18:08:00,
2013-01-25 18:13:00,33.1,32.5,29.45,ESE,112,2.0,4.0,98,0.00,,,0.02,meteohub,2013-01-25 18:13:00,
2013-01-25 18:18:00,33.1,32.5,29.45,ESE,112,3.0,4.0,98,0.00,,,0.02,meteohub,2013-01-25 18:18:00,
2013-01-25 18:24:00,33.1,32.5,29.45,ESE,112,1.0,4.0,98,0.00,,,0.02,meteohub,2013-01-25 18:24:00,
2013-01-25 18:29:00,33.1,32.5,29.45,ESE,112,3.0,4.0,98,0.00,,,0.02,meteohub,2013-01-25 18:29:00,
2013-01-25 18:34:00,33.1,32.5,29.45,ESE,112,2.0,4.0,98,0.00,,,0.02,meteohub,2013-01-25 18:34:00,
2013-01-25 18:39:00,33.1,32.5,29.45,ESE,112,1.0,4.0,98,0.00,,,0.02,meteohub,2013-01-25 18:39:00,
2013-01-25 18:44:00,33.1,32.5,29.45,ESE,112,3.0,3.0,98,0.00,,,0.02,meteohub,2013-01-25 18:44:00,
2013-01-25 18:49:00,33.1,32.5,29.45,ESE,112,3.0,3.0,98,0.00,,,0.02,meteohub,2013-01-25 18:49:00,
2013-01-25 18:54:00,33.1,32.5,29.45,ESE,112,2.0,4.0,98,0.00,,,0.02,meteohub,2013-01-25 18:54:00,
2013-01-25 19:00:00,33.1,32.5,29.45,ESE,112,2.0,4.0,98,0.00,,,0.02,meteohub,2013-01-25 19:00:00,
2013-01-25 19:05:00,33.1,32.5,29.42,ESE,112,2.0,4.0,98,0.00,,,0.02,meteohub,2013-01-25 19:05:00,
2013-01-25 19:10:00,33.1,32.5,29.42,ESE,112,0.0,3.0,98,0.00,,,0.02,meteohub,2013-01-25 19:10:00,
2013-01-25 19:15:00,33.1,32.5,29.42,ESE,112,2.0,3.0,98,0.00,,,0.02,meteohub,2013-01-25 19:15:00,
2013-01-25 19:20:00,33.1,32.5,29.42,ESE,112,3.0,3.0,98,0.00,,,0.02,meteohub,2013-01-25 19:20:00,
2013-01-25 19:25:00,33.1,32.5,29.42,ESE,112,2.0,3.0,98,0.00,,,0.02,meteohub,2013-01-25 19:25:00,
2013-01-25 19:30:00,33.1,32.5,29.42,ESE,112,3.0,4.0,98,0.00,,,0.02,meteohub,2013-01-25 19:30:00,
2013-01-25 19:35:00,33.1,32.5,29.42,ESE,112,3.0,4.0,98,0.00,,,0.02,meteohub,2013-01-25 19:35:00,
2013-01-25 19:41:00,33.1,32.5,29.42,ESE,112,1.0,4.0,98,0.00,,,0.02,meteohub,2013-01-25 19:41:00,
2013-01-25 19:46:00,33.3,32.7,29.42,ESE,112,2.0,4.0,98,0.00,,,0.02,meteohub,2013-01-25 19:46:00,
2013-01-25 19:51:00,33.3,32.7,29.42,ESE,112,0.0,4.0,98,0.00,,,0.02,meteohub,2013-01-25 19:51:00,
2013-01-25 19:56:00,33.3,32.7,29.42,ESE,112,0.0,3.0,98,0.00,,,0.02,meteohub,2013-01-25 19:56:00,
2013-01-25 20:01:00,33.3,32.7,29.42,ESE,112,2.0,3.0,98,0.00,,,0.02,meteohub,2013-01-25 20:01:00,
2013-01-25 20:06:00,33.3,32.7,29.42,ESE,112,2.0,2.0,98,0.00,,,0.02,meteohub,2013-01-25 20:06:00,
2013-01-25 20:11:00,33.3,32.7,29.42,ESE,112,0.0,2.0,98,0.00,,,0.02,meteohub,2013-01-25 20:11:00,
2013-01-25 20:16:00,33.3,32.7,29.39,East,90,0.0,2.0,98,0.00,,,0.02,meteohub,2013-01-25 20:16:00,
2013-01-25 20:21:00,33.3,32.7,29.39,East,90,0.0,2.0,98,0.00,,,0.02,meteohub,2013-01-25 20:21:00,
2013-01-25 20:26:00,33.3,32.7,29.39,ESE,112,0.0,2.0,98,0.00,,,0.02,meteohub,2013-01-25 20:26:00,
2013-01-25 20:32:00,33.3,32.7,29.39,ESE,112,0.0,0.0,98,0.00,,,0.02,meteohub,2013-01-25 20:32:00,
2013-01-25 20:37:00,33.3,32.7,29.39,SE,135,0.0,0.0,98,0.00,,,0.02,meteohub,2013-01-25 20:37:00,
2013-01-25 20:42:00,33.3,32.7,29.39,SE,135,2.0,0.0,98,0.00,,,0.02,meteohub,2013-01-25 20:42:00,
2013-01-25 20:47:00,33.3,32.7,29.39,ESE,112,1.0,3.0,98,0.00,,,0.02,meteohub,2013-01-25 20:47:00,
2013-01-25 20:52:00,33.4,32.9,29.39,SE,135,2.0,3.0,98,0.00,,,0.02,meteohub,2013-01-25 20:52:00,
2013-01-25 20:57:00,33.4,32.9,29.39,SE,135,0.0,3.0,98,0.00,,,0.02,meteohub,2013-01-25 20:57:00,
2013-01-25 21:02:00,33.4,32.9,29.39,SE,135,0.0,3.0,98,0.00,,,0.02,meteohub,2013-01-25 21:02:00,
2013-01-25 21:07:00,33.4,32.9,29.39,SE,135,0.0,3.0,98,0.00,,,0.02,meteohub,2013-01-25 21:07:00,
2013-01-25 21:12:00,33.4,32.9,29.39,SE,135,0.0,0.0,98,0.00,,,0.02,meteohub,2013-01-25 21:12:00,
2013-01-25 21:18:00,33.3,32.7,29.36,SE,135,0.0,0.0,98,0.00,,,0.02,meteohub,2013-01-25 21:18:00,
2013-01-25 21:23:00,33.3,32.7,29.36,SE,135,0.0,0.0,98,0.00,,,0.02,meteohub,2013-01-25 21:23:00,
2013-01-25 21:28:00,33.3,32.7,29.36,SE,135,0.0,0.0,98,0.00,,,0.02,meteohub,2013-01-25 21:28:00,
2013-01-25 21:33:00,33.3,32.7,29.39,SE,135,0.0,0.0,98,0.00,,,0.02,meteohub,2013-01-25 21:33:00,
2013-01-25 21:38:00,33.3,32.7,29.39,SE,135,0.0,0.0,98,0.00,,,0.02,meteohub,2013-01-25 21:38:00,
2013-01-25 21:43:00,33.3,32.7,29.39,SE,135,0.0,0.0,98,0.00,,,0.02,meteohub,2013-01-25 21:43:00,
2013-01-25 21:48:00,33.3,32.7,29.39,SE,135,0.0,0.0,98,0.00,,,0.02,meteohub,2013-01-25 21:48:00,
2013-01-25 21:53:00,33.3,32.7,29.39,SE,135,0.0,0.0,98,0.00,,,0.02,meteohub,2013-01-25 21:53:00,
2013-01-25 21:58:00,33.1,32.5,29.39,SE,135,0.0,0.0,98,0.00,,,0.02,meteohub,2013-01-25 21:58:00,
2013-01-25 22:03:00,33.1,32.5,29.39,SE,135,0.0,0.0,98,0.00,,,0.02,meteohub,2013-01-25 22:03:00,
2013-01-25 22:09:00,33.1,32.5,29.39,SE,135,0.0,0.0,98,0.00,,,0.02,meteohub,2013-01-25 22:09:00,
2013-01-25 22:14:00,33.1,32.5,29.39,SE,135,0.0,0.0,98,0.00,,,0.02,meteohub,2013-01-25 22:14:00,
2013-01-25 22:19:00,33.1,32.5,29.36,SE,135,0.0,0.0,98,0.00,,,0.02,meteohub,2013-01-25 22:19:00,
2013-01-25 22:24:00,33.1,32.5,29.36,South,180,0.0,0.0,98,0.00,,,0.02,meteohub,2013-01-25 22:24:00,
2013-01-25 22:29:00,33.1,32.5,29.36,South,180,0.0,0.0,98,0.00,,,0.02,meteohub,2013-01-25 22:29:00,
2013-01-25 22:34:00,33.1,32.5,29.36,South,180,0.0,0.0,98,0.00,,,0.02,meteohub,2013-01-25 22:34:00,
2013-01-25 22:39:00,33.1,32.5,29.36,South,180,0.0,0.0,98,0.00,,,0.02,meteohub,2013-01-25 22:39:00,
2013-01-25 22:44:00,33.1,32.5,29.36,South,180,0.0,0.0,98,0.00,,,0.02,meteohub,2013-01-25 22:44:00,
2013-01-25 22:49:00,33.1,32.5,29.36,South,180,0.0,0.0,98,0.00,,,0.02,meteohub,2013-01-25 22:49:00,
2013-01-25 22:54:00,33.1,32.5,29.36,South,180,0.0,0.0,98,0.00,,,0.02,meteohub,2013-01-25 22:54:00,
2013-01-25 22:59:00,33.1,32.5,29.36,South,180,0.0,0.0,98,0.00,,,0.02,meteohub,2013-01-25 22:59:00,
2013-01-25 23:05:00,33.1,32.5,29.36,South,180,0.0,0.0,98,0.00,,,0.02,meteohub,2013-01-25 23:05:00,
2013-01-25 23:10:00,33.1,32.5,29.36,SSW,202,0.0,0.0,98,0.00,,,0.02,meteohub,2013-01-25 23:10:00,
2013-01-25 23:15:00,33.1,32.5,29.36,SSW,202,0.0,0.0,98,0.00,,,0.02,meteohub,2013-01-25 23:15:00,
2013-01-25 23:20:00,33.1,32.5,29.36,SSW,202,0.0,0.0,98,0.00,,,0.02,meteohub,2013-01-25 23:20:00,
2013-01-25 23:25:00,33.1,32.5,29.36,SSW,202,0.0,0.0,98,0.00,,,0.02,meteohub,2013-01-25 23:25:00,
2013-01-25 23:30:00,33.1,32.5,29.36,South,180,0.0,0.0,98,0.00,,,0.02,meteohub,2013-01-25 23:30:00,
2013-01-25 23:35:00,33.1,32.5,29.36,South,180,0.0,0.0,98,0.00,,,0.02,meteohub,2013-01-25 23:35:00,
2013-01-25 23:40:00,33.3,32.7,29.36,South,180,0.0,0.0,98,0.00,,,0.02,meteohub,2013-01-25 23:40:00,
2013-01-25 23:45:00,33.3,32.7,29.36,South,180,0.0,0.0,98,0.00,,,0.02,meteohub,2013-01-25 23:45:00,
2013-01-25 23:50:00,33.3,32.7,29.36,SSW,202,0.0,0.0,98,0.00,,,0.02,meteohub,2013-01-25 23:50:00,
2013-01-25 23:55:00,33.3,32.7,29.36,SSW,202,2.0,2.0,98,0.00,,,0.02,meteohub,2013-01-25 23:55:00,